GEO-KOMPSAT-2A

导读

GEO-KOMPSAT-2A是韩国(KR)于2018年12月4日发射的地球静止轨道卫星,隶属于韩国通信、海洋与气象卫星计划,主要用于气象观测。该卫星搭载先进观测设备,可提供高时空分辨率的气象数据,提升韩国及东北亚地区对台风、暴雨等灾害性天气监测预警能力,助力气候研究和海洋环境监测,显著增强区域气象服务水平,是韩国航天在气象领域的重要成果。

Basic Information
目录编号:
43823
目录名称:
GEO-KOMPSAT-2A
国际标识:
2018-100A
轨道中心:
EARTH
卫星名称:
GEO-KOMPSAT-2A
卫星全名:
--
卫星状态:
在轨 (已飞行2752 天)
发射日期:
2018-12-04 UTC
国别 :
韩国 (KR)
星等 :
--
Orbit Information
数据来源 国际轨道数据 AOE轨道数据
星历时间 2026-06-16T23:20:10+0800
18小时前
查看轨道信息
2026-06-16T23:00:00+0800
18小时前
查看轨道信息
半长轴 42165.037km 42165.009km
偏心率 0.0001803 0.0001813
轨道倾角 0.052° 0.051°
近地点辐角 330.920° 334.380°
升交点赤经 115.837° 111.260°
平近点角 176.455° 172.518°
近地点 35779.297km 35779.227km
远地点 35794.503km 35794.517km
周期 1436.112分钟 1436.111分钟
每日圈数 1.002707 1.002708
Detailed Information
使用方式:
暂无
2D Orbit Map
3D Orbit Map
Orbit Altitude Analysis Chart
Orbit Inclination Analysis Chart
Orbit Comprehensive Analysis Chart
View Comprehensive Chart